Location: Newark
(13.0328°N, 9.6142°E)
Time: 08:01:39
(UTC+00:00)

Envisat - Pass Details

Date: 25 October 2019
Orbit: 764 x 766 km, 98.1° (Epoch: 18 November)

Event Time Altitude Azimuth Distance (km) Brightness Sun altitude
Rises 17:34:24 0° 163° (SSE) 3,222 6.2 -9.6°
Reaches altitude 10° 17:36:42 10° 160° (SSE) 2,296 5.4 -10.2°
Maximum altitude 17:41:44 69° 78° (ENE) 814 2.9 -11.4°
Drops below altitude 10° 17:46:46 10° 355° (N) 2,297 5.4 -12.6°
Sets 17:49:05 0° 353° (N) 3,223 6.2 -13.1°
